Samuel Hill Observation History
Time Wind Speed Temp Pressure Rel. Hum Rain
30/09:30am SE 9-14 kts 26.9°c 1015.4 hPa 63% 0.0mm
30/09:00am ESE 9-13 kts 26.5°c 1015.5 hPa 66% 1.2mm
30/08:30am ESE 7-10 kts 26.5°c 1015.5 hPa 67% 1.2mm
30/08:00am SSE 4-6 kts 25.3°c 1015.2 hPa 80% 1.2mm
30/07:30am SSE 4-5 kts 23.4°c 1015.0 hPa 88% 1.2mm
30/07:00am S 2-5 kts 21.5°c 1014.8 hPa 100% 1.2mm
30/06:30am CALM 0 kts 19.6°c 1014.6 hPa 99% 1.2mm
30/06:00am CALM 0 kts 19.4°c 1014.3 hPa 99% 1.2mm
30/05:30am CALM 0 kts 19.4°c 1014.0 hPa 99% 1.2mm
30/05:00am CALM 0 kts 19.1°c 1013.8 hPa 97% 1.2mm
30/04:30am SSE 3-4 kts 19.1°c 1013.7 hPa 96% 1.2mm
30/04:00am CALM 0 kts 19.2°c 1013.7 hPa 96% 1.2mm
30/03:30am CALM 0 kts 19.5°c 1014.2 hPa 97% 1.2mm
30/03:00am CALM 0 kts 19.2°c 1014.4 hPa 95% 1.2mm
30/02:30am SW 1-4 kts 20.0°c 1014.5 hPa 97% 1.2mm
30/02:00am CALM 0 kts 20.1°c 1014.7 hPa 95% 1.2mm
30/01:30am CALM 0 kts 20.4°c 1014.9 hPa 95% 1.2mm
30/01:00am CALM 0 kts 20.3°c 1015.1 hPa 92% 1.0mm
30/12:30am S 2-4 kts 21.4°c 1015.7 hPa 93% 1.0mm
30/12:00am SE 4-5 kts 21.4°c 1015.9 hPa 92% 1.0mm
Time Wind Speed Temp Pressure Rel. Hum Rain
29/11:30pm SE 3-4 kts 21.8°c 1015.9 hPa 91% 1.0mm
29/11:00pm SSE 4-5 kts 22.1°c 1016.0 hPa 92% 1.0mm
29/10:30pm SE 4-6 kts 22.1°c 1016.0 hPa 93% 1.0mm
29/10:00pm SSE 4-6 kts 22.0°c 1016.0 hPa 93% 1.0mm
29/09:30pm S 3-5 kts 21.7°c 1016.0 hPa 93% 1.0mm
29/09:00pm CALM 0 kts 21.3°c 1015.8 hPa 90% 1.0mm
29/08:30pm SSW 1-3 kts 21.7°c 1015.7 hPa 89% 1.0mm
29/08:00pm S 3-5 kts 22.2°c 1015.5 hPa 88% 1.0mm
29/07:30pm S 3-4 kts 22.6°c 1015.2 hPa 85% 1.0mm
29/07:00pm SE 3-5 kts 23.0°c 1014.9 hPa 82% 1.0mm
29/06:30pm SSE 4-5 kts 23.7°c 1014.7 hPa 78% 1.0mm
29/06:00pm ESE 6-9 kts 24.6°c 1014.4 hPa 73% 1.0mm
29/05:30pm ESE 7-11 kts 25.5°c 1014.1 hPa 70% 1.0mm
29/05:00pm ESE 7-12 kts 26.3°c 1013.9 hPa 67% 1.0mm
29/04:30pm ESE 10-14 kts 26.6°c 1013.9 hPa 64% 1.0mm
29/04:00pm ESE 9-13 kts 27.0°c 1013.8 hPa 66% 1.0mm
29/03:30pm SE 7-12 kts 26.1°c 1013.9 hPa 73% 1.0mm
29/03:00pm SSE 6-10 kts 25.4°c 1013.9 hPa 88% 1.0mm
29/02:30pm SSE 8-11 kts 24.6°c 1014.2 hPa 87% 0.8mm
29/02:00pm S 9-13 kts 24.7°c 1014.2 hPa 89% 0.8mm
29/01:30pm SSE 9-13 kts 24.5°c 1014.3 hPa 85% 0.6mm
29/01:17pm SSE 7-10 kts 24.7°c 1014.4 hPa 88% 0.4mm
29/01:05pm SE 10-16 kts 24.2°c 1014.5 hPa 85% 0.4mm
29/01:00pm SE 11-16 kts 24.3°c 1014.5 hPa 84% 0.0mm
29/12:30pm ESE 10-15 kts 27.7°c 1014.5 hPa 62% 0.0mm
29/12:00pm ESE 11-15 kts 28.6°c 1014.8 hPa 64% 0.0mm
29/11:30am ESE 10-15 kts 27.7°c 1015.0 hPa 63% 0.0mm
29/11:00am E 10-15 kts 28.6°c 1015.3 hPa 64% 0.0mm
29/10:30am E 10-17 kts 28.0°c 1015.8 hPa 61% 0.0mm
29/10:00am ESE 10-16 kts 27.2°c 1016.0 hPa 69% 0.0mm
29/09:30am ESE 8-15 kts 27.0°c 1015.9 hPa 71% 0.0mm
29/09:00am ESE 9-13 kts 26.6°c 1015.7 hPa 74% 4.8mm
29/08:30am ESE 8-13 kts 26.1°c 1015.7 hPa 77% 4.6mm
29/08:00am SE 5-11 kts 25.4°c 1015.5 hPa 85% 4.6mm
29/07:30am S 4-6 kts 23.7°c 1015.0 hPa 98% 4.6mm
29/07:00am SE 3-5 kts 23.0°c 1014.6 hPa 100% 4.6mm
29/06:30am SSE 5-7 kts 22.5°c 1014.5 hPa 100% 4.6mm
29/06:00am ESE 3-5 kts 22.4°c 1014.2 hPa 99% 4.6mm
29/05:30am S 4-5 kts 22.4°c 1013.9 hPa 99% 4.4mm
29/05:17am S 3-6 kts 22.3°c 1013.8 hPa 99% 4.4mm
29/05:15am S 2-6 kts 22.3°c 1014.0 hPa 99% 4.4mm
29/05:02am SSE 3-4 kts 22.0°c 1013.9 hPa 98% 4.4mm
29/05:01am SSE 3-4 kts 22.0°c 1014.1 hPa 98% 4.4mm
29/05:00am SE 3-4 kts 22.0°c 1013.9 hPa 98% 4.4mm
29/04:30am S 5-6 kts 21.8°c 1013.6 hPa 96% 4.4mm
29/04:00am S 4-5 kts 21.4°c 1013.4 hPa 95% 4.4mm
29/03:30am SSE 3-4 kts 21.1°c 1013.2 hPa 94% 4.4mm
29/03:00am SSE 4-5 kts 21.2°c 1013.5 hPa 94% 4.4mm
29/02:30am S 3-5 kts 21.4°c 1013.9 hPa 93% 4.4mm
29/02:00am S 5-6 kts 21.7°c 1014.3 hPa 93% 4.4mm
29/01:30am S 3-5 kts 21.7°c 1014.7 hPa 92% 4.4mm
29/01:00am S 4-6 kts 22.2°c 1015.0 hPa 93% 4.4mm
29/12:30am SE 7-10 kts 22.5°c 1015.1 hPa 89% 4.2mm
29/12:00am S 4-5 kts 22.3°c 1015.5 hPa 91% 4.0mm
Time Wind Speed Temp Pressure Rel. Hum Rain
28/11:30pm SSE 5-7 kts 22.3°c 1015.6 hPa 90% 4.0mm
28/11:00pm S 4-6 kts 22.5°c 1015.8 hPa 89% 4.0mm
28/10:30pm SSE 5-6 kts 22.9°c 1015.7 hPa 86% 4.0mm
28/10:00pm SSE 4-6 kts 22.6°c 1015.9 hPa 92% 4.0mm
28/09:30pm SSE 4-5 kts 22.5°c 1016.1 hPa 92% 4.0mm
28/09:00pm SSE 4-5 kts 22.6°c 1016.0 hPa 90% 4.0mm
28/08:30pm CALM 0-3 kts 22.7°c 1015.8 hPa 88% 4.0mm
28/08:00pm SSE 4-7 kts 22.9°c 1015.4 hPa 86% 4.0mm
28/07:30pm ESE 7-10 kts 22.9°c 1014.8 hPa 86% 4.0mm
28/07:00pm SE 9-14 kts 23.1°c 1014.7 hPa 91% 4.0mm
28/06:30pm SE 9-12 kts 23.6°c 1014.5 hPa 88% 4.0mm
28/06:00pm SE 7-12 kts 23.6°c 1014.2 hPa 87% 4.0mm
28/05:30pm SE 10-18 kts 24.3°c 1014.1 hPa 84% 4.0mm
28/05:00pm SE 9-14 kts 24.5°c 1014.0 hPa 86% 4.0mm
28/04:30pm SE 7-11 kts 25.4°c 1013.7 hPa 81% 4.0mm
28/04:00pm ESE 7-13 kts 25.5°c 1013.9 hPa 88% 4.0mm
28/03:35pm ESE 8-13 kts 23.9°c 1013.9 hPa 89% 4.0mm
28/03:30pm SE 11-22 kts 23.9°c 1013.9 hPa 88% 3.8mm
28/03:23pm SE 10-22 kts 23.9°c 1014.0 hPa 84% 3.8mm
28/03:06pm SE 8-13 kts 24.8°c 1014.0 hPa 87% 3.2mm
28/03:03pm SE 8-13 kts 24.7°c 1014.2 hPa 87% 3.2mm
28/03:00pm SE 9-13 kts 24.7°c 1014.0 hPa 88% 3.2mm
28/02:51pm SE 9-16 kts 24.6°c 1014.1 hPa 87% 3.2mm
28/02:48pm SE 9-16 kts 24.8°c 1014.3 hPa 86% 3.2mm
28/02:47pm SE 9-16 kts 24.9°c 1014.3 hPa 86% 3.2mm
28/02:35pm SE 8-13 kts 24.8°c 1014.1 hPa 90% 3.2mm
28/02:31pm SE 7-11 kts 24.8°c 1014.2 hPa 92% 3.2mm
28/02:30pm SE 7-11 kts 25.1°c 1014.2 hPa 93% 3.2mm
28/02:07pm SE 7-11 kts 24.1°c 1014.6 hPa 90% 1.6mm
28/02:06pm SE 7-10 kts 24.2°c 1014.8 hPa 90% 1.4mm
28/02:04pm SE 6-10 kts 24.4°c 1014.5 hPa 90% 1.0mm
28/02:00pm SSE 7-12 kts 24.5°c 1014.6 hPa 90% 0.4mm
28/01:47pm SE 10-15 kts 24.2°c 1014.7 hPa 87% 0.2mm
28/01:30pm SE 10-17 kts 25.8°c 1014.8 hPa 80% 0.0mm
28/01:00pm SE 9-15 kts 26.8°c 1014.9 hPa 73% 0.0mm
28/12:30pm ESE 9-15 kts 26.7°c 1015.1 hPa 73% 0.0mm
28/12:00pm SE 10-17 kts 26.5°c 1015.4 hPa 73% 0.0mm
28/11:30am SE 11-20 kts 26.3°c 1015.8 hPa 73% 0.0mm
28/11:00am SE 12-19 kts 25.7°c 1016.2 hPa 77% 0.0mm
28/10:30am SE 11-18 kts 25.4°c 1016.4 hPa 78% 0.0mm
28/10:22am SE 10-15 kts 25.2°c 1016.3 hPa 80% 0.0mm
28/10:21am SE 10-15 kts 25.2°c 1016.6 hPa 79% 0.0mm
28/10:00am SE 10-16 kts 25.3°c 1016.4 hPa 78% 0.0mm
28/09:30am SSE 8-13 kts 24.5°c 1016.5 hPa 85% 0.0mm
28/09:00am SSE 7-10 kts 23.7°c 1016.4 hPa 88% 2.2mm
28/08:30am SSE 7-12 kts 23.2°c 1016.2 hPa 93% 2.2mm
28/08:00am E 5-7 kts 22.6°c 1015.9 hPa 94% 2.0mm
28/07:30am SSE 6-10 kts 22.3°c 1015.6 hPa 95% 2.0mm
28/07:00am ESE 4-6 kts 22.2°c 1015.3 hPa 95% 2.0mm
28/06:30am SE 6-9 kts 22.2°c 1015.2 hPa 94% 1.8mm
28/06:00am SE 6-9 kts 22.0°c 1015.0 hPa 95% 1.8mm
28/05:57am SE 6-9 kts 22.0°c 1015.0 hPa 95% 1.8mm
28/05:40am SSE 5-9 kts 21.9°c 1014.8 hPa 93% 1.6mm
28/05:30am SSE 7-12 kts 22.1°c 1014.6 hPa 92% 0.8mm
28/05:00am SE 4-6 kts 22.4°c 1014.5 hPa 92% 0.6mm
28/04:31am E 5-7 kts 22.6°c 1014.4 hPa 91% 0.6mm
28/04:30am E 5-8 kts 22.6°c 1014.4 hPa 91% 0.6mm
28/04:00am ESE 6-9 kts 23.3°c 1014.4 hPa 85% 0.4mm
28/03:58am ESE 7-10 kts 23.3°c 1014.6 hPa 85% 0.4mm
28/03:30am SE 9-15 kts 23.3°c 1014.6 hPa 84% 0.4mm
28/03:00am SE 9-15 kts 23.6°c 1014.6 hPa 84% 0.4mm
28/02:30am SE 9-14 kts 24.4°c 1014.7 hPa 76% 0.4mm
28/02:00am ESE 9-14 kts 24.5°c 1014.9 hPa 75% 0.4mm
28/01:30am SE 9-16 kts 24.5°c 1015.2 hPa 74% 0.4mm
28/01:00am SE 8-12 kts 24.4°c 1015.5 hPa 76% 0.4mm
28/12:30am SE 9-13 kts 24.5°c 1015.7 hPa 75% 0.4mm
28/12:00am SE 8-13 kts 24.7°c 1016.0 hPa 73% 0.4mm